Regional Weather Roundup
Issued by NWS Sioux Falls, SD

Home | Current Version | Previous Version | Text Only | Print | Product List | Glossary Off
Versions: 1 2 3 4 5 6 7 8 9 10 11 12 13 14 15 16 17 18 19 20 21 22 23 24 25 26 27 28 29 30 31 32 33 34 35 36 37 38 39 40 41 42 43 44 45 46 47 48 49 50

000
ASUS43 KFSD 250802
RWRFSD

WEATHER ROUNDUP FOR SE SOUTH DAKOTA/SW MINNESOTA/NW IOWA
NATIONAL WEATHER SERVICE SIOUX FALLS SD
300 AM CDT SAT OCT 25 2014

NOTE: "FAIR" INDICATES FEW OR NO CLOUDS BELOW 12,000 FEET WITH NO
SIGNIFICANT WEATHER AND OR OBSTRUCTIONS TO VISIBILITY.


SDZ038>040-050-052>070-250900-
SOUTHEAST SOUTH DAKOTA

CITY           SKY/WX    TMP DP  RH WIND       PRES   REMARKS
CHAMBERLAIN    PTCLDY    52  36  54 CALM      30.10R
HURON          MOCLDY    51  40  65 N6        30.08R
MADISON        FAIR      54  37  54 N10       30.06R
MITCHELL       CLEAR     51  39  63 W6        30.08R
SIOUX FALLS    PTCLDY    50  41  71 CALM      30.05R
WINNER         FAIR      49  35  58 W5        30.12R
YANKTON        CLEAR     48  39  71 NW10      30.06R
$$

MNZ071-072-080-081-089-090-097-098-250900-
SOUTHWEST MINNESOTA

CITY           SKY/WX    TMP DP  RH WIND       PRES   REMARKS
FAIRMONT       MOCLDY    57   3  11 NW10      30.01R
JACKSON        PTCLDY    55  37  50 NW7       30.03R
LUVERNE        MOCLDY    54  41  62 N6        30.05R
MARSHALL       CLOUDY    55  37  50 NW12      30.03R
MONTEVIDEO     CLOUDY    55  39  54 N8        30.02S
PIPESTONE      MOCLDY    54  39  58 N3        30.05R
REDWOOD FALLS  CLOUDY    58  37  45 NW10      30.01R
TRACY          CLOUDY    59  39  46 NW9       30.04R
WINDOM         MOCLDY    57  37  47 NW12      30.02S
WORTHINGTON    MOCLDY    55  39  54 NW7       30.05S
$$

IAZ001>003-012>014-020>022-031-032-NEZ013-014-SDZ071-250900-
NORTHWEST IOWA

CITY           SKY/WX    TMP DP  RH WIND       PRES   REMARKS
CHEROKEE       CLEAR     45  45 100 NE3       30.03R
DENISON        CLEAR     45  45 100 E3        30.01S
ESTHERVILLE    PTCLDY    55  41  59 W8        30.02R
LE MARS        CLEAR     43  43 100 CALM      30.04R
ORANGE CITY    CLEAR     55  41  58 CALM      30.04R
SHELDON        CLEAR     45  43  93 NE5       30.03R
SIOUX CITY     CLEAR     46  42  86 CALM      30.03R
SPENCER        CLEAR     48  41  76 N8        30.04R
STORM LAKE     CLEAR     55  41  58 NW9       30.04R
$$

ABBREVIATIONS USED IN REMARKS
   TC - TEMPERATURE IN CELSIUS
  WCI - WIND CHILL INDEX
   HX - HEAT INDEX
  VSB - VISIBILITY




USA.gov is the U.S. government's official web portal to all federal, state and local government web resources and services.